Retour au catalogue

STARLINK-4085

ActifCommunicationsVLEO
NORAD 53262·PAYLOAD·🇺🇸 United States

Lancé Jul 24, 2022 depuis Cape Canaveral Space Force Station

Loading…

Prochains Passages (prochaines 24 heures)

TLE

FraisSource: CelesTrak SupGP

Époque: Sep 14, 2026, 21:48 UTC

1 53262C 22086W   26257.90881944  .00044283  00000+0  13438-2 0  2579
2 53262  53.1584  52.0065 0001139  79.2734 262.7198 15.33526098    18

Suivez STARLINK-4085 en temps réel avec AllMySat

Download on the App Store